EW1786 Weather Reports


time (UTC)temp
F
wind
direction
speed
knots
gust
knots
rain 1hr
in
rain 24hr
in
rain mn
in
humidity
%
barometer
mb
20260507064516 61 262 0.0 0.9 0.00 0.00 0.00 67 1010.5
20260507063517 61 258 0.0 1.7 0.00 0.00 0.00 66 1010.4
20260507062517 60 271 0.0 0.9 0.00 0.00 0.00 68 1010.2
20260507061517 59 243 0.9 1.7 0.00 0.00 0.00 66 1010.1
20260507060516 58 236 0.9 1.7 0.00 0.00 0.00 71 1010.0
20260507055517 58 252 0.9 0.9 0.00 0.00 0.00 73 1010.0
20260507054516 57 0.0 0.9 0.00 0.00 0.00 73 1009.9
20260507053516 56 252 0.0 1.7 0.00 0.00 0.00 72 1009.8
20260507052518 54 227 0.9 1.7 0.00 0.00 0.00 78 1009.7
20260507051518 53 258 0.9 1.7 0.00 0.00 0.00 80 1009.6
20260507050519 53 238 0.0 1.7 0.00 0.00 0.00 81 1009.5
20260507045519 53 236 0.0 0.9 0.00 0.00 0.00 81 1009.5
20260507044522 52 236 0.9 0.9 0.00 0.00 0.00 81 1009.3
20260507043518 52 236 0.0 0.9 0.00 0.00 0.00 84 1009.2
20260507042518 52 236 0.0 0.9 0.00 0.00 0.00 82 1009.1
20260507041517 52 236 0.0 1.7 0.00 0.00 0.00 81 1009.1
20260507040538 53 253 0.9 0.9 0.00 0.00 0.00 79 1009.0
20260507035539 53 242 0.9 1.7 0.00 0.00 0.00 79 1008.9
20260507034518 52 237 0.9 1.7 0.00 0.00 0.00 82 1008.8
20260507033518 53 0.0 0.9 0.00 0.00 0.00 80 1008.8
20260507032519 54 257 0.0 0.9 0.00 0.00 0.00 77 1008.8
20260507031518 55 233 0.9 2.6 0.00 0.00 0.00 76 1008.7
20260507030538 54 235 0.9 1.7 0.00 0.00 0.00 77 1008.8
20260507025519 55 268 0.0 1.7 0.00 0.00 0.00 76 1008.8
20260507024538 54 221 0.9 1.7 0.00 0.00 0.00 77 1008.7
20260507023518 54 221 0.9 1.7 0.00 0.00 0.00 77 1008.7
20260507022518 55 259 0.0 0.9 0.00 0.00 0.00 76 1008.6
20260507021518 56 244 0.0 5.2 0.00 0.00 0.00 73 1008.6
20260507020518 56 241 0.9 2.6 0.00 0.00 0.00 73 1008.5
20260507015538 56 243 0.9 4.3 0.00 0.00 0.00 75 1008.6
20260507014519 55 225 2.6 3.5 0.00 0.00 0.00 79 1008.5
20260507013518 55 242 0.0 1.7 0.00 0.00 0.00 78 1008.4
20260507012518 55 236 0.9 3.5 0.00 0.00 0.00 79 1008.3
20260507011519 54 230 2.6 3.5 0.00 0.00 0.00 80 1008.3
20260507010538 54 256 0.0 0.9 0.00 0.00 0.00 80 1008.3
20260507005518 56 261 0.0 4.3 0.00 0.00 0.00 77 1008.3
20260507004519 57 230 0.9 3.5 0.00 0.00 0.00 74 1008.3
20260507003518 58 229 1.7 2.6 0.00 0.00 0.00 69 1008.4
20260507002539 57 224 1.7 2.6 0.00 0.00 0.00 72 1008.5
20260507001517 57 239 0.9 1.7 0.00 0.00 0.00 70 1008.6
20260507000518 58 240 0.9 1.7 0.00 0.00 0.00 70 1008.6
20260506235517 58 235 0.9 1.7 0.00 0.00 0.00 70 1008.7
20260506234620 58 230 0.9 1.7 0.00 0.00 0.00 70 1008.6
20260506233517 57 239 0.9 2.6 0.00 0.00 0.00 70 1008.6
20260506232518 57 242 0.0 1.7 0.00 0.00 0.00 72 1008.7
20260506231538 58 265 0.0 1.7 0.00 0.00 0.00 68 1008.8
20260506230518 59 225 0.0 2.6 0.00 0.00 0.00 66 1008.8
20260506225518 59 227 1.7 3.5 0.00 0.00 0.00 66 1008.8
20260506224518 58 230 2.6 3.5 0.00 0.00 0.00 67 1008.7
20260506223538 58 230 1.7 2.6 0.00 0.00 0.00 69 1008.6
20260506222518 58 228 1.7 2.6 0.00 0.00 0.00 69 1008.5
20260506221518 58 237 0.9 1.7 0.00 0.00 0.00 69 1008.4
20260506220518 60 258 0.9 2.6 0.00 0.00 0.00 66 1008.5
20260506215520 61 226 1.7 4.3 0.00 0.00 0.00 60 1008.4
20260506214520 61 218 3.5 4.3 0.00 0.00 0.00 60 1008.4
20260506213518 61 218 2.6 4.3 0.00 0.00 0.00 61 1008.3
20260506212518 59 223 2.6 4.3 0.00 0.00 0.00 64 1008.3
20260506211518 60 234 0.9 2.6 0.00 0.00 0.00 65 1008.4
20260506210519 62 221 1.7 5.2 0.00 0.00 0.00 58 1008.3
20260506205618 62 219 3.5 6.1 0.00 0.00 0.00 57 1008.1
20260506204518 62 218 3.5 6.1 0.00 0.00 0.00 57 1008.0
20260506203517 62 217 3.5 5.2 0.00 0.00 0.00 57 1008.1
20260506202518 61 222 2.6 4.3 0.00 0.00 0.00 57 1008.0
20260506201538 61 227 2.6 3.5 0.00 0.00 0.00 56 1007.8
20260506200517 62 222 2.6 4.3 0.00 0.00 0.00 55 1007.9
20260506195517 62 220 2.6 4.3 0.00 0.00 0.00 56 1007.8
20260506194517 62 220 3.5 4.3 0.00 0.00 0.00 55 1007.6
20260506193519 62 222 2.6 4.3 0.00 0.00 0.00 55 1007.5
20260506192518 61 219 2.6 5.2 0.00 0.00 0.00 57 1007.4
20260506191517 61 207 1.7 2.6 0.00 0.00 0.00 60 1007.2
20260506190518 61 295 0.0 2.6 0.00 0.00 0.00 60 1007.1
20260506185517 61 215 0.0 1.7 0.00 0.00 0.00 63 1007.0
20260506184537 62 120 0.0 1.7 0.00 0.00 0.00 60
20260506183538 62 210 0.0 0.9 0.00 0.00 0.00 64
20260506182517 62 75 0.9 6.1 0.00 0.00 0.00 60
20260506181517 62 126 0.0 2.6 0.00 0.00 0.00 62
20260506180517 62 127 0.0 1.7 0.00 0.00 0.00 64
20260506175518 63 197 0.9 2.6 0.00 0.00 0.00 61
20260506174517 63 114 0.0 1.7 0.00 0.00 0.00 63
20260506173520 64 101 0.9 2.6 0.00 0.00 0.00 61
20260506172537 64 89 1.7 2.6 0.00 0.00 0.00 62
20260506171517 63 110 0.9 5.2 0.00 0.00 0.00 67
20260506170538 64 137 0.9 1.7 0.00 0.00 0.00 67
20260506165518 65 223 1.7 4.3 0.00 0.00 0.00 61
20260506164538 65 220 2.6 4.3 0.00 0.00 0.00 64 1005.9
20260506163518 65 212 2.6 3.5 0.00 0.00 0.00 65 1005.9
20260506162517 65 214 1.7 3.5 0.00 0.00 0.00 67 1006.0
20260506161518 65 191 1.7 2.6 0.00 0.00 0.00 68 1005.9
20260506160538 65 187 0.9 2.6 0.00 0.00 0.00 71 1005.9
20260506155517 65 134 0.9 3.5 0.00 0.00 0.00 72 1005.8
20260506154517 65 158 0.9 1.7 0.00 0.00 0.00 77 1005.8
20260506153517 66 223 0.0 2.6 0.00 0.00 0.00 75 1005.7
20260506152517 65 214 0.9 2.6 0.00 0.00 0.00 71 1005.8
20260506151517 65 219 0.9 2.6 0.00 0.00 0.00 73 1005.8
20260506150517 65 212 0.0 0.9 0.00 0.00 0.00 74 1005.8
20260506145537 65 223 0.0 2.6 0.00 0.00 0.00 75 1006.0
20260506144517 65 211 0.9 3.5 0.00 0.00 0.00 76 1005.7
20260506143537 64 217 1.7 4.3 0.00 0.00 0.00 77 1005.8
20260506142517 64 221 2.6 5.2 0.00 0.00 0.00 80 1005.9
20260506141517 63 220 2.6 5.2 0.00 0.00 0.00 81 1005.9
20260506140519 63 222 3.5 5.2 0.00 0.00 0.00 83 1006.0
20260506135517 63 221 2.6 4.3 0.00 0.00 0.00 84 1006.2
20260506134517 63 222 0.9 2.6 0.00 0.00 0.00 87 1006.4
20260506133517 62 227 0.9 3.5 0.00 0.00 0.00 88 1006.6
20260506132517 62 207 0.9 5.2 0.00 0.00 0.00 88 1006.8
20260506131517 62 216 2.6 4.3 0.00 0.00 0.00 88 1006.8
20260506130522 62 224 1.7 5.2 0.00 0.00 0.00 88 1007.2
20260506125517 62 231 0.9 2.6 0.00 0.00 0.00 89 1007.0
20260506124517 61 226 1.7 2.6 0.00 0.00 0.00 89 1007.0
20260506123517 62 226 1.7 4.3 0.00 0.00 0.00 87 1007.0
20260506122517 63 221 2.6 4.3 0.00 0.00 0.00 85 1006.9
20260506121517 65 228 0.9 5.2 0.00 0.00 0.00 81 1006.7
20260506120517 67 282 0.9 6.1 0.00 0.00 0.00 76 1006.5
20260506115519 68 237 0.9 4.3 0.00 0.00 0.00 74 1006.4
20260506114517 68 243 0.9 4.3 0.00 0.00 0.00 74 1006.5
20260506113517 67 273 0.9 2.6 0.00 0.00 0.00 76 1006.4
20260506112517 67 210 0.9 2.6 0.00 0.00 0.00 74 1006.5
20260506111517 68 201 1.7 6.1 0.00 0.00 0.00 74 1006.5
20260506110517 68 207 1.7 7.0 0.00 0.00 0.00 76 1006.5
20260506105517 67 181 1.7 7.0 0.00 0.00 0.00 81 1006.7
20260506104516 66 210 1.7 5.2 0.00 0.00 0.00 85 1006.7
20260506103537 64 199 2.6 6.1 0.00 0.00 0.00 89 1006.7
20260506102519 63 212 2.6 6.1 0.00 0.00 0.00 91 1006.8
20260506101517 63 203 2.6 7.0 0.00 0.00 0.00 92 1006.9
20260506100537 63 101 1.7 8.7 0.00 0.00 0.00 92 1006.9
20260506095537 62 84 0.9 9.6 0.00 0.00 0.00 92 1007.1
20260506094516 61 81 4.3 9.6 0.00 0.00 0.00 92 1007.0
20260506093518 60 81 3.5 8.7 0.00 0.00 0.00 92 1007.0
20260506092516 60 72 3.5 7.8 0.00 0.00 0.00 92 1007.0
20260506091516 59 79 3.5 8.7 0.00 0.00 0.00 92 1007.1
20260506090516 59 73 1.7 5.2 0.00 0.00 0.00 92 1007.0
20260506085517 59 73 2.6 6.1 0.00 0.00 0.00 92 1007.2
20260506084517 59 52 0.9 4.3 0.00 0.00 0.00 92 1007.2
20260506083536 59 54 0.9 2.6 0.00 0.00 0.00 92 1007.1
20260506082517 58 41 0.0 1.7 0.00 0.00 0.00 92 1007.1
20260506081519 58 48 0.0 0.9 0.00 0.00 0.00 92 1007.1
20260506080537 58 0.0 0.9 0.00 0.00 0.00 92 1007.1
20260506072518 57 113 0.0 4.3 0.00 0.00 0.00 92 1007.1
20260506071520 57 132 0.0 3.5 0.00 0.00 0.00 92 1007.2
20260506070539 57 254 0.0 1.7 0.00 0.00 0.00 92 1007.3